Time,TemperatureF,DewpointF,PressureIn,WindDirection,WindDirectionDegrees,WindSpeedMPH,WindSpeedGustMPH,Humidity,HourlyPrecipIn,Conditions,Clouds,dailyrainin,SoftwareType,DateUTC
2013-05-08 00:03:00,63.8,48.2,29.97,South,180,0.0,0.0,57,0.00,,,0.00,WUHU216HW,2013-05-08 07:03:00,
2013-05-08 00:08:00,63.8,48.2,29.97,South,180,0.0,0.0,57,0.00,,,0.00,WUHU216HW,2013-05-08 07:08:00,
2013-05-08 00:13:00,64.0,48.3,29.98,South,180,0.0,0.0,57,0.00,,,0.00,WUHU216HW,2013-05-08 07:13:00,
2013-05-08 00:18:00,64.0,48.8,29.98,South,180,0.0,0.0,58,0.00,,,0.00,WUHU216HW,2013-05-08 07:18:00,
2013-05-08 00:23:00,63.8,48.7,29.98,South,180,0.0,0.0,58,0.00,,,0.00,WUHU216HW,2013-05-08 07:23:00,
2013-05-08 00:28:00,63.8,48.7,29.97,South,180,0.0,0.0,58,0.00,,,0.00,WUHU216HW,2013-05-08 07:28:00,
2013-05-08 00:33:00,64.0,48.8,29.97,South,180,0.0,0.0,58,0.00,,,0.00,WUHU216HW,2013-05-08 07:33:00,
2013-05-08 00:38:00,64.0,48.8,29.97,South,180,0.0,0.0,58,0.00,,,0.00,WUHU216HW,2013-05-08 07:38:00,
2013-05-08 00:43:00,63.8,48.7,29.97,South,180,0.0,0.0,58,0.00,,,0.00,WUHU216HW,2013-05-08 07:43:00,
2013-05-08 00:48:00,64.0,48.8,29.97,South,180,0.0,0.0,58,0.00,,,0.00,WUHU216HW,2013-05-08 07:48:00,
2013-05-08 00:53:00,64.0,48.8,29.98,South,180,0.0,0.0,58,0.00,,,0.00,WUHU216HW,2013-05-08 07:53:00,
2013-05-08 00:58:00,64.0,48.8,29.98,South,180,0.0,0.0,58,0.00,,,0.00,WUHU216HW,2013-05-08 07:58:00,
2013-05-08 01:03:00,64.0,48.8,29.98,South,180,0.0,0.0,58,0.00,,,0.00,WUHU216HW,2013-05-08 08:03:00,
2013-05-08 01:08:00,64.0,48.8,29.98,South,180,0.0,0.0,58,0.00,,,0.00,WUHU216HW,2013-05-08 08:08:00,
2013-05-08 01:13:00,64.0,48.8,29.98,South,180,0.0,0.0,58,0.00,,,0.00,WUHU216HW,2013-05-08 08:13:00,
2013-05-08 01:18:00,64.0,48.8,29.98,South,180,0.0,0.0,58,0.00,,,0.00,WUHU216HW,2013-05-08 08:18:00,
2013-05-08 01:23:00,64.0,49.3,29.97,South,180,0.0,0.0,59,0.00,,,0.00,WUHU216HW,2013-05-08 08:23:00,
2013-05-08 01:28:00,64.0,49.3,29.98,South,180,0.0,0.0,59,0.00,,,0.00,WUHU216HW,2013-05-08 08:28:00,
2013-05-08 01:33:00,64.0,49.3,29.98,South,180,0.0,0.0,59,0.00,,,0.00,WUHU216HW,2013-05-08 08:33:00,
2013-05-08 01:38:00,64.0,49.3,29.97,South,180,0.0,0.0,59,0.00,,,0.00,WUHU216HW,2013-05-08 08:38:00,
2013-05-08 01:43:00,63.8,49.2,29.97,South,180,0.0,0.0,59,0.00,,,0.00,WUHU216HW,2013-05-08 08:43:00,
2013-05-08 01:48:00,63.8,49.2,29.98,South,180,0.0,0.0,59,0.00,,,0.00,WUHU216HW,2013-05-08 08:48:00,
2013-05-08 01:53:00,63.8,49.2,29.97,SW,225,0.0,0.0,59,0.00,,,0.00,WUHU216HW,2013-05-08 08:53:00,
2013-05-08 01:58:00,63.6,48.5,29.97,SW,225,0.0,0.0,58,0.00,,,0.00,WUHU216HW,2013-05-08 08:58:00,
2013-05-08 02:03:00,63.5,48.3,29.98,WSW,248,0.0,0.0,58,0.00,,,0.00,WUHU216HW,2013-05-08 09:03:00,
2013-05-08 02:08:00,63.5,48.3,29.98,WSW,248,0.0,0.0,58,0.00,,,0.00,WUHU216HW,2013-05-08 09:08:00,
2013-05-08 02:13:00,63.5,48.3,29.98,NNW,338,0.0,0.0,58,0.00,,,0.00,WUHU216HW,2013-05-08 09:13:00,
2013-05-08 02:18:00,63.5,48.3,29.97,NNW,338,0.0,0.0,58,0.00,,,0.00,WUHU216HW,2013-05-08 09:18:00,
2013-05-08 02:23:00,63.3,48.2,29.98,NNW,338,0.0,0.0,58,0.00,,,0.00,WUHU216HW,2013-05-08 09:23:00,
2013-05-08 02:28:00,63.3,48.2,29.97,NNW,338,0.0,0.0,58,0.00,,,0.00,WUHU216HW,2013-05-08 09:28:00,
2013-05-08 02:33:00,63.1,48.0,29.98,NW,315,0.0,0.0,58,0.00,,,0.00,WUHU216HW,2013-05-08 09:33:00,
2013-05-08 02:38:00,63.3,48.2,29.97,NW,315,0.0,0.0,58,0.00,,,0.00,WUHU216HW,2013-05-08 09:38:00,
2013-05-08 02:43:00,63.1,48.0,29.97,NNW,338,0.0,0.0,58,0.00,,,0.00,WUHU216HW,2013-05-08 09:43:00,
2013-05-08 02:48:00,63.1,48.0,29.98,NNW,338,0.0,0.0,58,0.00,,,0.00,WUHU216HW,2013-05-08 09:48:00,
2013-05-08 02:53:00,62.9,47.9,29.97,North,0,0.0,0.0,58,0.00,,,0.00,WUHU216HW,2013-05-08 09:53:00,
2013-05-08 02:58:00,62.9,47.9,29.97,North,0,0.0,0.0,58,0.00,,,0.00,WUHU216HW,2013-05-08 09:58:00,
2013-05-08 03:03:00,62.9,47.9,29.98,WSW,248,0.0,0.0,58,0.00,,,0.00,WUHU216HW,2013-05-08 10:03:00,
2013-05-08 03:08:00,62.9,47.9,29.98,WSW,248,0.0,0.0,58,0.00,,,0.00,WUHU216HW,2013-05-08 10:08:00,
2013-05-08 03:13:00,62.9,47.9,29.98,WSW,248,0.0,0.0,58,0.00,,,0.00,WUHU216HW,2013-05-08 10:13:00,
2013-05-08 03:18:00,62.9,47.9,29.98,WSW,248,0.0,0.0,58,0.00,,,0.00,WUHU216HW,2013-05-08 10:18:00,
2013-05-08 03:23:00,62.7,47.7,29.98,WSW,248,0.0,0.0,58,0.00,,,0.00,WUHU216HW,2013-05-08 10:23:00,
2013-05-08 03:28:00,62.7,47.7,29.98,WSW,248,0.0,0.0,58,0.00,,,0.00,WUHU216HW,2013-05-08 10:28:00,
2013-05-08 03:33:00,62.7,47.7,29.98,NW,315,0.0,0.0,58,0.00,,,0.00,WUHU216HW,2013-05-08 10:33:00,
2013-05-08 03:38:00,62.7,47.7,29.98,NW,315,0.0,0.0,58,0.00,,,0.00,WUHU216HW,2013-05-08 10:38:00,
2013-05-08 03:43:00,62.6,47.7,29.98,NW,315,0.0,0.0,58,0.00,,,0.00,WUHU216HW,2013-05-08 10:43:00,
2013-05-08 03:48:00,62.6,48.0,29.98,NW,315,0.0,0.0,59,0.00,,,0.00,WUHU216HW,2013-05-08 10:48:00,
2013-05-08 03:53:00,62.6,48.0,29.99,NW,315,0.0,0.0,59,0.00,,,0.00,WUHU216HW,2013-05-08 10:53:00,
2013-05-08 03:58:00,62.4,48.0,29.99,NW,315,0.0,0.0,59,0.00,,,0.00,WUHU216HW,2013-05-08 10:58:00,
2013-05-08 04:03:00,62.4,47.9,29.99,NW,315,0.0,0.0,59,0.00,,,0.00,WUHU216HW,2013-05-08 11:03:00,
2013-05-08 04:08:00,62.2,48.2,29.99,NW,315,0.0,0.0,60,0.00,,,0.00,WUHU216HW,2013-05-08 11:08:00,
2013-05-08 04:13:00,62.2,48.6,29.99,NW,315,0.0,0.0,61,0.00,,,0.00,WUHU216HW,2013-05-08 11:13:00,
2013-05-08 04:18:00,62.2,49.0,29.99,NW,315,0.0,0.0,62,0.00,,,0.00,WUHU216HW,2013-05-08 11:18:00,
2013-05-08 04:23:00,62.2,49.0,29.99,NW,315,0.0,0.0,62,0.00,,,0.00,WUHU216HW,2013-05-08 11:23:00,
2013-05-08 04:28:00,62.0,48.9,29.99,NW,315,0.0,0.0,62,0.00,,,0.00,WUHU216HW,2013-05-08 11:28:00,
2013-05-08 04:33:00,62.0,48.9,30.00,NW,315,0.0,0.0,62,0.00,,,0.00,WUHU216HW,2013-05-08 11:33:00,
2013-05-08 04:38:00,62.0,48.9,29.99,NW,315,0.0,0.0,62,0.00,,,0.00,WUHU216HW,2013-05-08 11:38:00,
2013-05-08 04:43:00,62.0,49.3,29.99,NW,315,0.0,0.0,63,0.00,,,0.00,WUHU216HW,2013-05-08 11:43:00,
2013-05-08 04:48:00,61.7,49.4,29.99,NW,315,0.0,0.0,64,0.00,,,0.00,WUHU216HW,2013-05-08 11:48:00,
2013-05-08 04:53:00,61.5,49.2,29.99,WNW,293,0.0,0.0,64,0.00,,,0.00,WUHU216HW,2013-05-08 11:53:00,
2013-05-08 04:58:00,61.5,50.0,29.99,WNW,293,0.0,0.0,66,0.00,,,0.00,WUHU216HW,2013-05-08 11:58:00,
2013-05-08 05:03:00,61.5,50.0,29.99,WNW,293,0.0,0.0,66,0.00,,,0.00,WUHU216HW,2013-05-08 12:03:00,
2013-05-08 05:08:00,61.3,49.9,30.00,WNW,293,0.0,0.0,66,0.00,,,0.00,WUHU216HW,2013-05-08 12:08:00,
2013-05-08 05:13:00,61.1,49.7,30.00,WNW,293,0.0,0.0,66,0.00,,,0.00,WUHU216HW,2013-05-08 12:13:00,
2013-05-08 05:18:00,61.1,50.1,30.00,WNW,293,0.0,0.0,67,0.00,,,0.00,WUHU216HW,2013-05-08 12:18:00,
2013-05-08 05:23:00,60.9,50.0,30.00,WNW,293,0.0,0.0,67,0.00,,,0.00,WUHU216HW,2013-05-08 12:23:00,
2013-05-08 05:28:00,60.6,49.6,30.00,WNW,293,0.0,0.0,67,0.00,,,0.00,WUHU216HW,2013-05-08 12:28:00,
2013-05-08 05:33:00,60.6,50.0,30.00,WNW,293,0.0,0.0,68,0.00,,,0.00,WUHU216HW,2013-05-08 12:33:00,
2013-05-08 05:38:00,60.4,49.8,30.00,WNW,293,0.0,0.0,68,0.00,,,0.00,WUHU216HW,2013-05-08 12:38:00,
2013-05-08 05:44:00,60.2,49.7,30.00,SSW,203,0.0,0.0,68,0.00,,,0.00,WUHU216HW,2013-05-08 12:44:00,
2013-05-08 05:49:00,60.2,49.7,30.00,SSW,203,0.0,0.0,68,0.00,,,0.00,WUHU216HW,2013-05-08 12:49:00,
2013-05-08 05:54:00,60.0,49.9,30.01,NE,45,0.0,0.0,69,0.00,,,0.00,WUHU216HW,2013-05-08 12:54:00,
2013-05-08 05:59:00,59.9,49.7,30.01,NW,315,0.0,0.0,69,0.00,,,0.00,WUHU216HW,2013-05-08 12:59:00,
2013-05-08 06:04:00,59.5,49.8,30.01,NNW,338,0.0,0.0,70,0.00,,,0.00,WUHU216HW,2013-05-08 13:04:00,
2013-05-08 06:09:00,59.7,50.0,30.01,North,0,0.0,0.0,70,0.00,,,0.00,WUHU216HW,2013-05-08 13:09:00,
2013-05-08 06:14:00,59.5,50.1,30.01,NNW,338,0.0,3.1,71,0.00,,,0.00,WUHU216HW,2013-05-08 13:14:00,
2013-05-08 06:19:00,59.3,50.0,30.02,NNW,338,0.6,3.1,71,0.00,,,0.00,WUHU216HW,2013-05-08 13:19:00,
2013-05-08 06:24:00,59.3,50.0,30.01,NW,315,0.0,2.0,71,0.00,,,0.00,WUHU216HW,2013-05-08 13:24:00,
2013-05-08 06:29:00,59.1,50.1,30.02,North,0,0.0,4.2,72,0.00,,,0.00,WUHU216HW,2013-05-08 13:29:00,
2013-05-08 06:34:00,59.1,50.1,30.02,NNW,338,1.5,4.2,72,0.00,,,0.00,WUHU216HW,2013-05-08 13:34:00,
2013-05-08 06:39:00,59.1,50.1,30.02,WSW,248,0.0,1.5,72,0.00,,,0.00,WUHU216HW,2013-05-08 13:39:00,
2013-05-08 06:44:00,59.0,50.0,30.02,NNW,338,1.3,1.5,72,0.00,,,0.00,WUHU216HW,2013-05-08 13:44:00,
2013-05-08 06:49:00,59.0,50.3,30.03,NNW,338,0.0,1.3,73,0.00,,,0.00,WUHU216HW,2013-05-08 13:49:00,
2013-05-08 06:54:00,59.0,50.3,30.03,SSW,203,0.0,0.0,73,0.00,,,0.00,WUHU216HW,2013-05-08 13:54:00,
2013-05-08 06:59:00,59.0,50.3,30.03,ESE,113,0.0,0.0,73,0.00,,,0.00,WUHU216HW,2013-05-08 13:59:00,
2013-05-08 07:04:00,59.0,50.3,30.03,NNE,23,0.0,2.0,73,0.00,,,0.00,WUHU216HW,2013-05-08 14:04:00,
2013-05-08 07:09:00,59.0,50.3,30.04,WNW,293,0.0,2.0,73,0.00,,,0.00,WUHU216HW,2013-05-08 14:09:00,
2013-05-08 07:14:00,59.1,50.5,30.04,WSW,248,0.0,0.0,73,0.00,,,0.00,WUHU216HW,2013-05-08 14:14:00,
2013-05-08 07:19:00,59.1,50.5,30.04,WSW,248,0.0,0.0,73,0.00,,,0.00,WUHU216HW,2013-05-08 14:19:00,
2013-05-08 07:24:00,59.1,50.5,30.04,SE,135,0.0,0.0,73,0.00,,,0.00,WUHU216HW,2013-05-08 14:24:00,
2013-05-08 07:29:00,59.1,50.5,30.04,SSE,158,0.0,0.0,73,0.00,,,0.00,WUHU216HW,2013-05-08 14:29:00,
2013-05-08 07:34:00,59.3,50.7,30.04,NNE,23,0.0,0.0,73,0.00,,,0.00,WUHU216HW,2013-05-08 14:34:00,
2013-05-08 07:39:00,59.3,50.7,30.04,NNE,23,0.0,0.0,73,0.00,,,0.00,WUHU216HW,2013-05-08 14:39:00,
2013-05-08 07:44:00,59.3,50.7,30.04,North,0,0.0,0.0,73,0.00,,,0.00,WUHU216HW,2013-05-08 14:44:00,
2013-05-08 07:49:00,59.3,50.7,30.04,NW,315,0.0,0.0,73,0.00,,,0.00,WUHU216HW,2013-05-08 14:49:00,
2013-05-08 07:54:00,59.3,50.7,30.04,NW,315,0.0,0.0,73,0.00,,,0.00,WUHU216HW,2013-05-08 14:54:00,
2013-05-08 07:59:00,59.7,51.0,30.04,WSW,248,0.0,0.0,73,0.00,,,0.00,WUHU216HW,2013-05-08 14:59:00,
2013-05-08 08:04:00,59.7,51.4,30.04,West,270,0.0,0.0,74,0.00,,,0.00,WUHU216HW,2013-05-08 15:04:00,
2013-05-08 08:09:00,59.5,51.2,30.04,North,0,0.6,1.1,74,0.00,,,0.00,WUHU216HW,2013-05-08 15:09:00,
2013-05-08 08:14:00,60.0,51.4,30.04,North,0,0.0,3.3,73,0.00,,,0.00,WUHU216HW,2013-05-08 15:14:00,
2013-05-08 08:19:00,60.2,51.6,30.04,NE,45,0.0,3.3,73,0.00,,,0.00,WUHU216HW,2013-05-08 15:19:00,
2013-05-08 08:24:00,60.4,51.4,30.04,North,0,0.0,0.0,72,0.00,,,0.00,WUHU216HW,2013-05-08 15:24:00,
2013-05-08 08:29:00,60.6,51.6,30.04,NW,315,0.0,0.0,72,0.00,,,0.00,WUHU216HW,2013-05-08 15:29:00,
2013-05-08 08:34:00,60.8,51.8,30.04,NNE,23,4.2,4.2,72,0.00,,,0.00,WUHU216HW,2013-05-08 15:34:00,
2013-05-08 08:39:00,61.1,52.1,30.04,NNE,23,0.6,4.2,72,0.00,,,0.00,WUHU216HW,2013-05-08 15:39:00,
2013-05-08 08:44:00,61.1,52.1,30.05,NNW,338,1.7,4.2,72,0.00,,,0.00,WUHU216HW,2013-05-08 15:44:00,
2013-05-08 08:49:00,61.3,51.9,30.05,North,0,0.0,2.6,71,0.00,,,0.00,WUHU216HW,2013-05-08 15:49:00,
2013-05-08 08:54:00,61.3,51.9,30.05,North,0,0.0,1.7,71,0.00,,,0.00,WUHU216HW,2013-05-08 15:54:00,
2013-05-08 08:59:00,61.5,51.7,30.05,NNW,338,0.0,0.0,70,0.00,,,0.00,WUHU216HW,2013-05-08 15:59:00,
2013-05-08 09:04:00,61.5,51.7,30.05,NNW,338,0.0,0.0,70,0.00,,,0.00,WUHU216HW,2013-05-08 16:04:00,
2013-05-08 09:09:00,61.8,51.6,30.05,West,270,0.0,0.0,69,0.00,,,0.00,WUHU216HW,2013-05-08 16:09:00,
2013-05-08 09:14:00,62.2,51.9,30.06,North,0,2.0,2.0,69,0.00,,,0.00,WUHU216HW,2013-05-08 16:14:00,
2013-05-08 09:19:00,62.7,52.4,30.06,North,0,2.6,2.6,69,0.00,,,0.00,WUHU216HW,2013-05-08 16:19:00,
2013-05-08 09:24:00,62.9,52.6,30.06,North,0,0.0,2.6,69,0.00,,,0.00,WUHU216HW,2013-05-08 16:24:00,
2013-05-08 09:29:00,63.3,52.5,30.06,NNW,338,2.0,5.3,68,0.00,,,0.00,WUHU216HW,2013-05-08 16:29:00,
2013-05-08 09:34:00,63.8,52.6,30.06,NNW,338,3.5,6.0,67,0.00,,,0.00,WUHU216HW,2013-05-08 16:34:00,
2013-05-08 09:39:00,63.8,52.6,30.06,NNE,23,2.6,6.0,67,0.00,,,0.00,WUHU216HW,2013-05-08 16:39:00,
2013-05-08 09:44:00,64.0,52.4,30.06,NNE,23,2.6,3.5,66,0.00,,,0.00,WUHU216HW,2013-05-08 16:44:00,
2013-05-08 09:49:00,64.4,52.3,30.06,WNW,293,0.0,2.6,65,0.00,,,0.00,WUHU216HW,2013-05-08 16:49:00,
2013-05-08 09:54:00,64.5,52.5,30.07,NNW,338,1.5,4.0,65,0.00,,,0.00,WUHU216HW,2013-05-08 16:54:00,
2013-05-08 09:59:00,64.5,52.0,30.06,North,0,1.5,6.2,64,0.00,,,0.00,WUHU216HW,2013-05-08 16:59:00,
2013-05-08 10:04:00,64.7,52.2,30.06,NNE,23,4.0,6.2,64,0.00,,,0.00,WUHU216HW,2013-05-08 17:04:00,
2013-05-08 10:09:00,65.3,52.7,30.06,SW,225,0.0,5.1,64,0.00,,,0.00,WUHU216HW,2013-05-08 17:09:00,
2013-05-08 10:14:00,65.6,52.6,30.06,NW,315,2.4,3.5,63,0.00,,,0.00,WUHU216HW,2013-05-08 17:14:00,
2013-05-08 10:19:00,65.8,52.8,30.06,NW,315,2.4,2.4,63,0.00,,,0.00,WUHU216HW,2013-05-08 17:19:00,
2013-05-08 10:24:00,66.3,52.9,30.06,North,0,4.9,5.8,62,0.00,,,0.00,WUHU216HW,2013-05-08 17:24:00,
2013-05-08 10:29:00,66.5,53.1,30.06,North,0,0.0,5.8,62,0.00,,,0.00,WUHU216HW,2013-05-08 17:29:00,
2013-05-08 10:34:00,66.9,53.4,30.07,NE,45,0.0,0.0,62,0.00,,,0.00,WUHU216HW,2013-05-08 17:34:00,
2013-05-08 10:39:00,67.6,53.6,30.07,WSW,248,1.7,1.7,61,0.00,,,0.00,WUHU216HW,2013-05-08 17:39:00,
2013-05-08 10:44:00,68.1,53.7,30.07,NNW,338,0.0,1.7,60,0.00,,,0.00,WUHU216HW,2013-05-08 17:44:00,
2013-05-08 10:49:00,68.3,53.4,30.07,NE,45,6.0,6.0,59,0.00,,,0.00,WUHU216HW,2013-05-08 17:49:00,
2013-05-08 10:54:00,69.0,53.1,30.07,NNW,338,3.3,6.0,57,0.00,,,0.00,WUHU216HW,2013-05-08 17:54:00,
2013-05-08 10:59:00,69.2,52.3,30.07,North,0,0.0,3.3,55,0.00,,,0.00,WUHU216HW,2013-05-08 17:59:00,
2013-05-08 11:04:00,69.4,52.0,30.07,NNW,338,0.0,3.3,54,0.00,,,0.00,WUHU216HW,2013-05-08 18:04:00,
2013-05-08 11:09:00,69.8,52.3,30.07,North,0,1.3,3.3,54,0.00,,,0.00,WUHU216HW,2013-05-08 18:09:00,
2013-05-08 11:14:00,69.9,52.0,30.07,North,0,0.0,6.0,53,0.00,,,0.00,WUHU216HW,2013-05-08 18:14:00,
2013-05-08 11:20:00,70.1,52.1,30.07,North,0,3.1,6.0,53,0.00,,,0.00,WUHU216HW,2013-05-08 18:20:00,
2013-05-08 11:25:00,70.1,51.6,30.07,NNW,338,3.8,6.0,52,0.00,,,0.00,WUHU216HW,2013-05-08 18:25:00,
2013-05-08 11:30:00,70.5,52.0,30.06,NNE,23,0.0,3.8,52,0.00,,,0.00,WUHU216HW,2013-05-08 18:30:00,
2013-05-08 11:35:00,70.7,50.5,30.07,NNW,338,0.0,3.8,49,0.00,,,0.00,WUHU216HW,2013-05-08 18:35:00,
2013-05-08 11:40:00,71.0,50.9,30.07,NW,315,0.0,0.0,49,0.00,,,0.00,WUHU216HW,2013-05-08 18:40:00,
2013-05-08 11:45:00,71.2,50.4,30.06,NNE,23,2.6,2.9,48,0.00,,,0.00,WUHU216HW,2013-05-08 18:45:00,
2013-05-08 11:50:00,71.7,50.3,30.07,NNW,338,0.8,2.9,47,0.00,,,0.00,WUHU216HW,2013-05-08 18:50:00,
2013-05-08 11:55:00,71.9,49.3,30.06,SE,135,0.0,4.6,45,0.00,,,0.00,WUHU216HW,2013-05-08 18:55:00,
2013-05-08 12:00:00,71.9,49.3,30.07,NNW,338,5.8,5.8,45,0.00,,,0.00,WUHU216HW,2013-05-08 19:00:00,
2013-05-08 12:05:00,72.1,49.4,30.06,North,0,2.4,5.8,45,0.00,,,0.00,WUHU216HW,2013-05-08 19:05:00,
2013-05-08 12:10:00,72.5,49.2,30.06,North,0,2.0,2.4,44,0.00,,,0.00,WUHU216HW,2013-05-08 19:10:00,
2013-05-08 12:15:00,72.6,49.3,30.06,NNW,338,1.1,5.1,44,0.00,,,0.00,WUHU216HW,2013-05-08 19:15:00,
2013-05-08 12:20:00,72.8,49.5,30.06,NW,315,0.0,5.5,44,0.00,,,0.00,WUHU216HW,2013-05-08 19:20:00,
2013-05-08 12:25:00,73.0,49.7,30.06,North,0,0.0,6.0,44,0.00,,,0.00,WUHU216HW,2013-05-08 19:25:00,
2013-05-08 12:30:00,73.0,49.1,30.06,North,0,1.5,6.0,43,0.00,,,0.00,WUHU216HW,2013-05-08 19:30:00,
2013-05-08 12:35:00,73.0,49.1,30.05,NW,315,0.0,2.4,43,0.00,,,0.00,WUHU216HW,2013-05-08 19:35:00,
2013-05-08 12:40:00,73.5,49.6,30.05,North,0,3.5,3.5,43,0.00,,,0.00,WUHU216HW,2013-05-08 19:40:00,
2013-05-08 12:45:00,74.1,49.4,30.05,NNW,338,6.9,6.9,42,0.00,,,0.00,WUHU216HW,2013-05-08 19:45:00,
2013-05-08 12:50:00,74.6,49.3,30.05,ESE,113,1.7,6.9,41,0.00,,,0.00,WUHU216HW,2013-05-08 19:50:00,
2013-05-08 12:55:00,75.2,49.8,30.05,ESE,113,1.7,6.9,41,0.00,,,0.00,WUHU216HW,2013-05-08 19:55:00,
2013-05-08 13:00:00,75.5,50.2,30.04,North,0,6.9,6.9,41,0.00,,,0.00,WUHU216HW,2013-05-08 20:00:00,
2013-05-08 13:05:00,75.9,49.9,30.05,South,180,2.2,6.9,40,0.00,,,0.00,WUHU216HW,2013-05-08 20:05:00,
2013-05-08 13:10:00,76.2,48.7,30.04,NNW,338,3.1,6.9,38,0.00,,,0.00,WUHU216HW,2013-05-08 20:10:00,
2013-05-08 13:15:00,76.6,49.0,30.04,NNW,338,0.4,3.1,38,0.00,,,0.00,WUHU216HW,2013-05-08 20:15:00,
2013-05-08 13:20:00,77.0,49.3,30.04,NNW,338,1.7,3.1,38,0.00,,,0.00,WUHU216HW,2013-05-08 20:20:00,
2013-05-08 13:25:00,77.1,48.7,30.04,East,90,0.0,4.6,37,0.00,,,0.00,WUHU216HW,2013-05-08 20:25:00,
2013-05-08 13:30:00,77.7,49.2,30.04,North,0,3.8,4.6,37,0.00,,,0.00,WUHU216HW,2013-05-08 20:30:00,
2013-05-08 13:35:00,77.7,48.4,30.04,NNW,338,6.7,6.7,36,0.00,,,0.00,WUHU216HW,2013-05-08 20:35:00,
2013-05-08 13:40:00,78.2,48.9,30.04,NW,315,1.7,6.7,36,0.00,,,0.00,WUHU216HW,2013-05-08 20:40:00,
2013-05-08 13:45:00,78.8,48.6,30.03,North,0,0.0,3.5,35,0.00,,,0.00,WUHU216HW,2013-05-08 20:45:00,
2013-05-08 13:50:00,79.1,48.9,30.04,NNE,23,0.0,3.1,35,0.00,,,0.00,WUHU216HW,2013-05-08 20:50:00,
2013-05-08 13:55:00,79.3,48.3,30.03,NW,315,2.0,3.1,34,0.00,,,0.00,WUHU216HW,2013-05-08 20:55:00,
2013-05-08 14:00:00,79.8,48.0,30.04,ENE,68,1.3,4.2,33,0.00,,,0.00,WUHU216HW,2013-05-08 21:00:00,
2013-05-08 14:05:00,80.0,48.2,30.03,North,0,0.0,4.2,33,0.00,,,0.00,WUHU216HW,2013-05-08 21:05:00,
2013-05-08 14:10:00,80.4,49.3,30.03,North,0,5.1,5.1,34,0.00,,,0.00,WUHU216HW,2013-05-08 21:10:00,
2013-05-08 14:15:00,81.1,49.1,30.03,East,90,0.0,6.0,33,0.00,,,0.00,WUHU216HW,2013-05-08 21:15:00,
2013-05-08 14:20:00,81.6,49.6,30.03,NNW,338,1.3,6.0,33,0.00,,,0.00,WUHU216HW,2013-05-08 21:20:00,
2013-05-08 14:25:00,81.6,48.0,30.03,NNE,23,6.2,6.2,31,0.00,,,0.00,WUHU216HW,2013-05-08 21:25:00,
2013-05-08 14:30:00,81.5,47.8,30.03,NW,315,0.0,6.2,31,0.00,,,0.00,WUHU216HW,2013-05-08 21:30:00,
2013-05-08 14:35:00,81.8,48.1,30.03,NW,315,3.8,6.2,31,0.00,,,0.00,WUHU216HW,2013-05-08 21:35:00,
2013-05-08 14:40:00,82.5,48.0,30.03,NNW,338,2.9,4.4,30,0.00,,,0.00,WUHU216HW,2013-05-08 21:40:00,
2013-05-08 14:45:00,82.7,48.9,30.02,NNE,23,0.0,4.4,31,0.00,,,0.00,WUHU216HW,2013-05-08 21:45:00,
2013-05-08 14:50:00,82.7,48.9,30.03,North,0,0.0,4.0,31,0.00,,,0.00,WUHU216HW,2013-05-08 21:50:00,
2013-05-08 14:55:00,83.3,47.5,30.02,NNW,338,5.3,6.7,29,0.00,,,0.00,WUHU216HW,2013-05-08 21:55:00,
2013-05-08 15:00:00,83.8,48.0,30.02,NW,315,3.1,6.7,29,0.00,,,0.00,WUHU216HW,2013-05-08 22:00:00,
2013-05-08 15:05:00,84.5,49.7,30.02,NNW,338,0.0,6.4,30,0.00,,,0.00,WUHU216HW,2013-05-08 22:05:00,
2013-05-08 15:10:00,85.1,49.1,30.02,ESE,113,0.0,6.4,29,0.00,,,0.00,WUHU216HW,2013-05-08 22:10:00,
2013-05-08 15:15:00,85.6,49.6,30.02,SE,135,0.6,2.9,29,0.00,,,0.00,WUHU216HW,2013-05-08 22:15:00,
2013-05-08 15:20:00,86.3,49.2,30.02,NNW,338,0.0,0.6,28,0.00,,,0.00,WUHU216HW,2013-05-08 22:20:00,
2013-05-08 15:25:00,86.9,48.5,30.01,WSW,248,6.2,6.2,27,0.00,,,0.00,WUHU216HW,2013-05-08 22:25:00,
2013-05-08 15:30:00,86.9,46.4,30.01,North,0,5.3,6.2,25,0.00,,,0.00,WUHU216HW,2013-05-08 22:30:00,
2013-05-08 15:35:00,86.9,46.4,30.01,North,0,2.4,6.2,25,0.00,,,0.00,WUHU216HW,2013-05-08 22:35:00,
2013-05-08 15:40:00,86.9,46.4,30.00,NNW,338,1.1,8.9,25,0.00,,,0.00,WUHU216HW,2013-05-08 22:40:00,
2013-05-08 15:45:00,86.7,47.3,30.00,SE,135,6.2,8.9,26,0.00,,,0.00,WUHU216HW,2013-05-08 22:45:00,
2013-05-08 15:50:00,86.9,48.5,30.00,SE,135,6.2,6.2,27,0.00,,,0.00,WUHU216HW,2013-05-08 22:50:00,
2013-05-08 15:55:00,87.2,46.7,30.00,NNW,338,3.1,6.2,25,0.00,,,0.00,WUHU216HW,2013-05-08 22:55:00,
2013-05-08 16:00:00,87.2,46.7,30.00,NNE,23,6.9,6.9,25,0.00,,,0.00,WUHU216HW,2013-05-08 23:00:00,
2013-05-08 16:05:00,86.5,45.0,30.00,North,0,6.2,6.9,24,0.00,,,0.00,WUHU216HW,2013-05-08 23:05:00,
2013-05-08 16:10:00,85.6,45.3,30.00,NNW,338,0.6,6.4,25,0.00,,,0.00,WUHU216HW,2013-05-08 23:10:00,
2013-05-08 16:15:00,85.1,45.9,30.00,North,0,0.0,6.9,26,0.00,,,0.00,WUHU216HW,2013-05-08 23:15:00,
2013-05-08 16:21:00,85.1,47.0,30.00,ENE,68,0.0,6.9,27,0.00,,,0.00,WUHU216HW,2013-05-08 23:21:00,
2013-05-08 16:26:00,85.2,47.2,30.00,West,270,0.0,4.0,27,0.00,,,0.00,WUHU216HW,2013-05-08 23:26:00,
2013-05-08 16:31:00,85.6,46.4,30.00,NNW,338,1.1,4.0,26,0.00,,,0.00,WUHU216HW,2013-05-08 23:31:00,
2013-05-08 16:36:00,85.6,46.4,30.00,NNW,338,1.1,1.1,26,0.00,,,0.00,WUHU216HW,2013-05-08 23:36:00,
2013-05-08 16:41:00,85.4,46.2,30.00,East,90,0.0,1.1,26,0.00,,,0.00,WUHU216HW,2013-05-08 23:41:00,
2013-05-08 16:46:00,85.4,46.2,30.00,North,0,1.5,2.4,26,0.00,,,0.00,WUHU216HW,2013-05-08 23:46:00,
2013-05-08 16:51:00,84.5,45.9,30.00,NNW,338,2.2,2.4,26,0.00,,,0.00,WUHU216HW,2013-05-08 23:51:00,
2013-05-08 16:56:00,84.2,45.2,30.00,NNW,338,0.0,2.2,26,0.00,,,0.00,WUHU216HW,2013-05-08 23:56:00,
2013-05-08 17:01:00,83.6,45.7,30.00,West,270,0.0,2.2,27,0.00,,,0.00,WUHU216HW,2013-05-09 00:01:00,
2013-05-08 17:06:00,83.3,45.3,30.00,NW,315,3.1,3.8,27,0.00,,,0.00,WUHU216HW,2013-05-09 00:06:00,
2013-05-08 17:11:00,82.7,45.0,29.99,North,0,3.8,3.8,27,0.00,,,0.00,WUHU216HW,2013-05-09 00:11:00,
2013-05-08 17:16:00,81.8,45.3,30.00,NNW,338,5.5,5.5,28,0.00,,,0.00,WUHU216HW,2013-05-09 00:16:00,
2013-05-08 17:21:00,80.7,45.5,30.00,WNW,293,0.0,5.5,29,0.00,,,0.00,WUHU216HW,2013-05-09 00:21:00,
2013-05-08 17:26:00,80.6,45.3,30.00,West,270,0.0,5.5,29,0.00,,,0.00,WUHU216HW,2013-05-09 00:26:00,
2013-05-08 17:31:00,79.3,44.2,29.99,SE,135,1.1,5.3,29,0.00,,,0.00,WUHU216HW,2013-05-09 00:31:00,
2013-05-08 17:36:00,79.1,45.1,29.99,ENE,68,0.0,5.3,30,0.00,,,0.00,WUHU216HW,2013-05-09 00:36:00,
2013-05-08 17:41:00,79.3,45.2,29.99,NNW,338,0.0,6.4,30,0.00,,,0.00,WUHU216HW,2013-05-09 00:41:00,
2013-05-08 17:46:00,78.4,44.4,29.99,NNW,338,1.3,6.4,30,0.00,,,0.00,WUHU216HW,2013-05-09 00:46:00,
2013-05-08 17:51:00,78.4,45.2,29.99,NNW,338,5.1,5.1,31,0.00,,,0.00,WUHU216HW,2013-05-09 00:51:00,
2013-05-08 17:56:00,78.2,44.3,29.99,North,0,0.0,5.1,30,0.00,,,0.00,WUHU216HW,2013-05-09 00:56:00,
2013-05-08 18:01:00,77.9,44.8,29.99,NNW,338,0.0,0.0,31,0.00,,,0.00,WUHU216HW,2013-05-09 01:01:00,
2013-05-08 18:06:00,77.9,44.8,29.99,NNE,23,0.0,3.3,31,0.00,,,0.00,WUHU216HW,2013-05-09 01:06:00,
2013-05-08 18:11:00,77.5,44.6,29.98,NNW,338,5.1,5.1,31,0.00,,,0.00,WUHU216HW,2013-05-09 01:11:00,
2013-05-08 18:16:00,77.1,44.9,29.98,NNW,338,4.9,5.1,32,0.00,,,0.00,WUHU216HW,2013-05-09 01:16:00,
2013-05-08 18:21:00,76.8,44.6,29.99,NNW,338,1.3,5.1,32,0.00,,,0.00,WUHU216HW,2013-05-09 01:21:00,
2013-05-08 18:26:00,76.6,44.5,29.99,North,0,2.9,4.9,32,0.00,,,0.00,WUHU216HW,2013-05-09 01:26:00,
2013-05-08 18:31:00,76.4,44.3,29.98,NNW,338,2.0,4.2,32,0.00,,,0.00,WUHU216HW,2013-05-09 01:31:00,
2013-05-08 18:36:00,76.2,44.2,29.99,NNW,338,0.0,4.2,32,0.00,,,0.00,WUHU216HW,2013-05-09 01:36:00,
2013-05-08 18:41:00,76.2,44.9,29.98,ESE,113,0.0,2.0,33,0.00,,,0.00,WUHU216HW,2013-05-09 01:41:00,
2013-05-08 18:46:00,76.2,44.9,29.98,ENE,68,0.0,1.5,33,0.00,,,0.00,WUHU216HW,2013-05-09 01:46:00,
2013-05-08 18:51:00,76.1,44.7,29.98,NNE,23,0.0,1.5,33,0.00,,,0.00,WUHU216HW,2013-05-09 01:51:00,
2013-05-08 18:56:00,76.1,44.7,29.98,North,0,1.1,1.7,33,0.00,,,0.00,WUHU216HW,2013-05-09 01:56:00,
2013-05-08 19:01:00,75.9,44.6,29.99,North,0,1.1,1.7,33,0.00,,,0.00,WUHU216HW,2013-05-09 02:01:00,
2013-05-08 19:06:00,75.9,45.3,29.99,NNW,338,0.0,3.1,34,0.00,,,0.00,WUHU216HW,2013-05-09 02:06:00,
2013-05-08 19:11:00,75.5,45.0,29.99,North,0,2.4,3.1,34,0.00,,,0.00,WUHU216HW,2013-05-09 02:11:00,
2013-05-08 19:16:00,75.3,44.9,29.99,NNW,338,0.0,2.4,34,0.00,,,0.00,WUHU216HW,2013-05-09 02:16:00,
2013-05-08 19:21:00,75.0,45.3,29.99,NNW,338,0.0,2.4,35,0.00,,,0.00,WUHU216HW,2013-05-09 02:21:00,
2013-05-08 19:26:00,74.8,45.1,29.99,North,0,0.0,2.2,35,0.00,,,0.00,WUHU216HW,2013-05-09 02:26:00,
2013-05-08 19:31:00,74.8,45.1,29.99,North,0,1.1,2.2,35,0.00,,,0.00,WUHU216HW,2013-05-09 02:31:00,
2013-05-08 19:36:00,74.4,44.8,30.00,North,0,2.6,2.6,35,0.00,,,0.00,WUHU216HW,2013-05-09 02:36:00,
2013-05-08 19:41:00,74.1,44.5,30.00,North,0,0.0,2.6,35,0.00,,,0.00,WUHU216HW,2013-05-09 02:41:00,
2013-05-08 19:46:00,74.1,46.0,30.00,North,0,0.0,2.6,37,0.00,,,0.00,WUHU216HW,2013-05-09 02:46:00,
2013-05-08 19:51:00,73.9,45.8,30.00,North,0,0.0,0.0,37,0.00,,,0.00,WUHU216HW,2013-05-09 02:51:00,
2013-05-08 19:56:00,73.5,45.5,30.00,North,0,0.0,0.0,37,0.00,,,0.00,WUHU216HW,2013-05-09 02:56:00,
2013-05-08 20:01:00,73.4,45.3,30.00,North,0,0.0,0.0,37,0.00,,,0.00,WUHU216HW,2013-05-09 03:01:00,
2013-05-08 20:06:00,73.0,45.0,30.00,North,0,0.0,0.0,37,0.00,,,0.00,WUHU216HW,2013-05-09 03:06:00,
2013-05-08 20:11:00,72.8,44.9,30.00,North,0,0.0,0.0,37,0.00,,,0.00,WUHU216HW,2013-05-09 03:11:00,
2013-05-08 20:16:00,72.5,44.6,30.01,North,0,0.0,0.0,37,0.00,,,0.00,WUHU216HW,2013-05-09 03:16:00,
2013-05-08 20:21:00,72.1,45.0,30.01,West,270,0.0,2.0,38,0.00,,,0.00,WUHU216HW,2013-05-09 03:21:00,
2013-05-08 20:26:00,71.4,45.1,30.01,NNE,23,0.0,2.0,39,0.00,,,0.00,WUHU216HW,2013-05-09 03:26:00,
2013-05-08 20:31:00,71.2,44.9,30.01,NNE,23,0.0,0.6,39,0.00,,,0.00,WUHU216HW,2013-05-09 03:31:00,
2013-05-08 20:36:00,71.0,44.8,30.01,North,0,1.5,1.5,39,0.00,,,0.00,WUHU216HW,2013-05-09 03:36:00,
2013-05-08 20:41:00,70.7,45.2,30.02,North,0,0.0,1.5,40,0.00,,,0.00,WUHU216HW,2013-05-09 03:41:00,
2013-05-08 20:46:00,70.5,45.6,30.02,North,0,0.0,1.1,41,0.00,,,0.00,WUHU216HW,2013-05-09 03:46:00,
2013-05-08 20:51:00,70.1,45.9,30.02,NNW,338,1.5,1.5,42,0.00,,,0.00,WUHU216HW,2013-05-09 03:51:00,
2013-05-08 20:56:00,69.9,45.7,30.02,North,0,1.7,1.7,42,0.00,,,0.00,WUHU216HW,2013-05-09 03:56:00,
2013-05-08 21:01:00,69.6,46.0,30.02,NNE,23,2.0,4.6,43,0.00,,,0.00,WUHU216HW,2013-05-09 04:01:00,
2013-05-08 21:06:00,69.2,45.7,30.03,NNE,23,0.0,4.6,43,0.00,,,0.00,WUHU216HW,2013-05-09 04:06:00,
2013-05-08 21:11:00,69.2,46.3,30.03,NNW,338,0.0,0.0,44,0.00,,,0.00,WUHU216HW,2013-05-09 04:11:00,
2013-05-08 21:16:00,68.9,45.9,30.03,North,0,0.0,0.0,44,0.00,,,0.00,WUHU216HW,2013-05-09 04:16:00,
2013-05-08 21:21:00,68.7,46.2,30.03,North,0,0.0,0.0,45,0.00,,,0.00,WUHU216HW,2013-05-09 04:21:00,
2013-05-08 21:27:00,68.3,46.0,30.04,NNW,338,0.0,0.0,45,0.00,,,0.00,WUHU216HW,2013-05-09 04:27:00,
2013-05-08 21:32:00,68.1,45.9,30.04,NNW,338,0.0,0.0,45,0.00,,,0.00,WUHU216HW,2013-05-09 04:32:00,
2013-05-08 21:37:00,67.6,46.0,30.04,WNW,293,0.0,0.0,46,0.00,,,0.00,WUHU216HW,2013-05-09 04:37:00,
2013-05-08 21:42:00,67.4,45.8,30.04,WNW,293,0.0,0.0,46,0.00,,,0.00,WUHU216HW,2013-05-09 04:42:00,
2013-05-08 21:47:00,67.2,45.7,30.04,WNW,293,0.0,0.0,46,0.00,,,0.00,WUHU216HW,2013-05-09 04:47:00,
2013-05-08 21:52:00,66.9,45.9,30.04,WNW,293,0.0,0.0,47,0.00,,,0.00,WUHU216HW,2013-05-09 04:52:00,
2013-05-08 21:57:00,66.5,46.2,30.04,WNW,293,0.0,0.0,48,0.00,,,0.00,WUHU216HW,2013-05-09 04:57:00,
2013-05-08 22:02:00,66.3,46.0,30.05,WNW,293,0.0,0.0,48,0.00,,,0.00,WUHU216HW,2013-05-09 05:02:00,
2013-05-08 22:07:00,66.0,45.7,30.05,WNW,293,0.0,0.0,48,0.00,,,0.00,WUHU216HW,2013-05-09 05:07:00,
2013-05-08 22:12:00,65.8,45.5,30.05,WNW,293,0.0,0.0,48,0.00,,,0.00,WUHU216HW,2013-05-09 05:12:00,
2013-05-08 22:17:00,65.6,45.3,30.05,WNW,293,0.0,0.0,48,0.00,,,0.00,WUHU216HW,2013-05-09 05:17:00,
2013-05-08 22:22:00,65.3,45.6,30.06,WNW,293,0.0,0.0,49,0.00,,,0.00,WUHU216HW,2013-05-09 05:22:00,
2013-05-08 22:27:00,65.1,46.0,30.05,WNW,293,0.0,0.0,50,0.00,,,0.00,WUHU216HW,2013-05-09 05:27:00,
2013-05-08 22:32:00,64.9,46.3,30.05,WNW,293,0.0,0.0,51,0.00,,,0.00,WUHU216HW,2013-05-09 05:32:00,
2013-05-08 22:37:00,64.5,45.9,30.06,WNW,293,0.0,0.0,51,0.00,,,0.00,WUHU216HW,2013-05-09 05:37:00,
2013-05-08 22:42:00,64.4,45.8,30.05,WNW,293,0.0,0.0,51,0.00,,,0.00,WUHU216HW,2013-05-09 05:42:00,
2013-05-08 22:47:00,64.0,45.4,30.05,WNW,293,0.0,0.0,51,0.00,,,0.00,WUHU216HW,2013-05-09 05:47:00,
2013-05-08 22:52:00,64.0,45.9,30.05,WNW,293,0.0,0.0,52,0.00,,,0.00,WUHU216HW,2013-05-09 05:52:00,
2013-05-08 22:57:00,63.8,45.8,30.06,WNW,293,0.0,0.0,52,0.00,,,0.00,WUHU216HW,2013-05-09 05:57:00,
2013-05-08 23:02:00,63.6,46.1,30.06,North,0,0.0,0.0,53,0.00,,,0.00,WUHU216HW,2013-05-09 06:02:00,
2013-05-08 23:07:00,63.3,45.8,30.06,NNW,338,0.0,0.0,53,0.00,,,0.00,WUHU216HW,2013-05-09 06:07:00,
2013-05-08 23:12:00,63.1,45.6,30.06,NNW,338,0.0,0.0,53,0.00,,,0.00,WUHU216HW,2013-05-09 06:12:00,
2013-05-08 23:17:00,63.1,45.6,30.06,NNW,338,0.0,0.0,53,0.00,,,0.00,WUHU216HW,2013-05-09 06:17:00,
2013-05-08 23:22:00,62.7,45.8,30.06,NNW,338,0.0,0.0,54,0.00,,,0.00,WUHU216HW,2013-05-09 06:22:00,
2013-05-08 23:27:00,62.4,45.4,30.06,NNW,338,0.0,0.0,54,0.00,,,0.00,WUHU216HW,2013-05-09 06:27:00,
2013-05-08 23:32:00,62.2,45.3,30.06,NNW,338,0.0,0.0,54,0.00,,,0.00,WUHU216HW,2013-05-09 06:32:00,
2013-05-08 23:37:00,62.0,45.1,30.06,NNW,338,0.0,0.0,54,0.00,,,0.00,WUHU216HW,2013-05-09 06:37:00,
2013-05-08 23:42:00,62.0,45.6,30.07,NNW,338,0.0,0.0,55,0.00,,,0.00,WUHU216HW,2013-05-09 06:42:00,
2013-05-08 23:47:00,61.7,45.8,30.07,NW,315,0.0,0.0,56,0.00,,,0.00,WUHU216HW,2013-05-09 06:47:00,
2013-05-08 23:52:00,61.7,46.2,30.07,SW,225,0.0,0.0,57,0.00,,,0.00,WUHU216HW,2013-05-09 06:52:00,
2013-05-08 23:57:00,61.3,45.9,30.06,WSW,248,0.0,0.0,57,0.00,,,0.00,WUHU216HW,2013-05-09 06:57:00,